STARLINK-5694, 55481

Orbit data source: Space-Track

STARLINK-5694, 55481 is a payload satellite owned by SpaceX/Seattle (US) in LEO that was launched on Thu, 02 Feb 2023 UTC via an FALCON 9 launch vehicle from the Air Force Eastern Test Range (AFETR). Payload-class satellites include a variety of spacecraft equipped with specific instruments for various scientific and technological missions. These include communications satellites like Starlink; space stations such as the ISS; scientific satellites like the Hubble; Earth observation satellites from companies like Planet Labs, Umbra, and HawkEye 360; GPS; miniature CubeSats for education and research; and military/defense satellites.

Loading next visibility...
Identifier
55481, 2023-015AJ
Orbit
LEO
Country
Flag of USUS
Related business
Manufacturer
SpaceX/Seattle
Mission
Operational Commercial Communications
Bus & Motor
STARLINK, Unknown motor
Mass
305 kg wet, ~290 kg dry
Launch date (UTC)
2023-02-02 (3 years ago)
Launch vehicle
FALCON 9
Launch site
Air Force Eastern Test Range (AFETR)
Object type
Payload
Rocket body
Debris
Shape & HBR
Box + 1 Pan, 10.1 m
Radar Cross Section
13.562 m², Large (>1 m²)

Expand to show TLE details & history
Last TLE update: 7 hours ago

TLE from 7 hours ago
0 STARLINK-5694
1 55481U 23015AJ  26063.16670139  .00090771  00000-0  58037-2 0  9993
2 55481  43.0009   9.0659 0001797 259.5137  54.6993 15.07597927  5762
Epoch: 2026-03-04T04:00Z
TLE epoch observation values (Epoch: 2026-03-04T04:00:03.000Z)
Latitude
-29.42792°
Longitude
110.13317°
Altitude
550.631 km
Speed
7.587 km/s
True Right ascension
22h 08m 19s
True Declination
-29° 16' 36"
Sunlit
Object was in daylight at epoch
Visualization orbit readout
Latitude
Unknown
Longitude
Unknown
Altitude
Unknown
Speed
Unknown
Apparent Right ascension
Unknown
Apparent Declination
Unknown
Sunlit
N/A
Visualization observer readout
Local Sidereal Time
15:02:15
Azimuth
Unknown
Elevation
Unknown
Doppler factor
Unknown
Orbital elements
Apogee altitude
546.715 km
Perigee altitude
544.226 km
Semi-major axis
6,923.608 km
Eccentricity
0.00018
Inclination
43.0009°
RAAN
9.0659°
Arg. of periapsis
259.5137°
True anomaly
54.71611°
Mean anomaly
54.6993°
Eccentric anomaly
54.7077°
Mean motion
3.76742 °/min
Orbital period
95.56 mins
BSTAR
0.0058037
Loading maneuver chart data...
Computing Atmospheric mass density...
Loading historical data...
Loading historical data...
Loading historical data...
Loading historical data...
Loading historical data...
Loading historical data...
Loading historical data...

Documentation

Showing up to 5 results
|